• In United Kingdom
  • List of Countries
  • For 7 days
  • Water Temperature
  • Satellite Maps
  • Weather Map
  • Weather Widgets
  • user-avatar
    Login

    Hourly Weather Beverly

    Today, 19 September, Wednesday

    Time Temperature Precipitation Wind Pressure Humidity
    00:00 +16°C° 0 mm 7 mps 754 mmHg 79%
    01:00 +16°C° 0 mm 7 mps 754 mmHg 80%
    02:00 +16°C° 0 mm 7 mps 755 mmHg 81%
    03:00 +15°C° 0 mm 7 mps 755 mmHg 83%
    04:00 +15°C° 0 mm 7 mps 754 mmHg 84%
    05:00 +15°C° 0 mm 7 mps 754 mmHg 86%
    06:00 +14°C° 0 mm 6 mps 754 mmHg 90%
    07:00 +15°C° 0 mm 7 mps 753 mmHg 84%
    08:00 +16°C° 0 mm 9 mps 753 mmHg 77%
    09:00 +17°C° 0 mm 11 mps 753 mmHg 71%
    10:00 +18°C° 0 mm 11 mps 752 mmHg 67%
    11:00 +19°C° 0 mm 12 mps 752 mmHg 63%
    12:00 +20°C° 0 mm 13 mps 751 mmHg 59%
    13:00 +19°C° 0.1 mm 13 mps 752 mmHg 60%
    14:00 +19°C° 0.1 mm 12 mps 752 mmHg 61%
    15:00 +18°C° 0.1 mm 12 mps 752 mmHg 62%
    16:00 +17°C° 0 mm 11 mps 753 mmHg 61%
    17:00 +16°C° 0 mm 9 mps 754 mmHg 59%
    18:00 +15°C° 0 mm 8 mps 754 mmHg 58%
    19:00 +13°C° 0 mm 8 mps 755 mmHg 59%
    20:00 +12°C° 0 mm 7 mps 756 mmHg 60%
    21:00 +12°C° 0 mm 7 mps 757 mmHg 60%
    22:00 +11°C° 0 mm 7 mps 757 mmHg 62%
    23:00 +11°C° 0 mm 7 mps 757 mmHg 64%

    Tomorrow, 20 September, Thursday

    Time Temperature Precipitation Wind Pressure Humidity
    00:00 +11°C° 0 mm 7 mps 757 mmHg 66%
    01:00 +10°C° 0.1 mm 7 mps 757 mmHg 69%
    02:00 +10°C° 0.1 mm 7 mps 757 mmHg 72%
    03:00 +10°C° 0.1 mm 7 mps 757 mmHg 75%
    04:00 +10°C° 0.3 mm 6 mps 757 mmHg 76%
    05:00 +10°C° 0.3 mm 5 mps 757 mmHg 78%
    06:00 +10°C° 0.3 mm 5 mps 756 mmHg 79%
    07:00 +11°C° 0.1 mm 4 mps 756 mmHg 78%
    08:00 +12°C° 0.1 mm 4 mps 756 mmHg 78%
    09:00 +12°C° 0.1 mm 4 mps 756 mmHg 78%
    10:00 +12°C° 0.1 mm 4 mps 756 mmHg 76%
    11:00 +13°C° 0.1 mm 4 mps 755 mmHg 74%
    12:00 +14°C° 0.1 mm 4 mps 755 mmHg 72%
    13:00 +14°C° 1.1 mm 5 mps 754 mmHg 78%
    14:00 +14°C° 1.1 mm 6 mps 753 mmHg 83%
    15:00 +14°C° 1.1 mm 7 mps 752 mmHg 89%
    16:00 +15°C° 2.3 mm 8 mps 750 mmHg 88%
    17:00 +16°C° 2.3 mm 9 mps 749 mmHg 87%
    18:00 +17°C° 2.3 mm 11 mps 748 mmHg 86%
    19:00 +17°C° 0.4 mm 11 mps 746 mmHg 86%
    20:00 +17°C° 0.4 mm 11 mps 745 mmHg 86%
    21:00 +17°C° 0.4 mm 11 mps 744 mmHg 86%
    22:00 +17°C° 1 mm 11 mps 743 mmHg 84%
    23:00 +16°C° 1 mm 11 mps 742 mmHg 83%

    Day after tomorrow, 21 September, Friday

    Time Temperature Precipitation Wind Pressure Humidity
    00:00 +16°C° 1 mm 11 mps 741 mmHg 81%
    01:00 +13°C° 0.2 mm 12 mps 742 mmHg 79%
    02:00 +10°C° 0.2 mm 13 mps 743 mmHg 76%
    03:00 +8°C° 0.2 mm 14 mps 744 mmHg 73%
    04:00 +8°C° 0 mm 14 mps 745 mmHg 72%
    05:00 +7°C° 0 mm 13 mps 746 mmHg 71%
    06:00 +7°C° 0 mm 13 mps 747 mmHg 69%
    07:00 +8°C° 0 mm 13 mps 748 mmHg 66%
    08:00 +9°C° 0 mm 13 mps 749 mmHg 63%
    09:00 +9°C° 0 mm 13 mps 749 mmHg 60%
    10:00 +10°C° 0.1 mm 13 mps 750 mmHg 61%
    11:00 +10°C° 0.1 mm 13 mps 750 mmHg 63%
    12:00 +12°C° 0.1 mm 13 mps 751 mmHg 65%
    13:00 +12°C° 0.4 mm 13 mps 751 mmHg 65%
    14:00 +12°C° 0.4 mm 12 mps 752 mmHg 65%
    15:00 +12°C° 0.4 mm 12 mps 753 mmHg 65%
    16:00 +11°C° 0.1 mm 11 mps 754 mmHg 66%
    17:00 +11°C° 0.1 mm 10 mps 755 mmHg 68%
    18:00 +10°C° 0.1 mm 9 mps 756 mmHg 69%
    19:00 +10°C° 0 mm 8 mps 756 mmHg 71%
    20:00 +9°C° 0 mm 8 mps 757 mmHg 72%
    21:00 +9°C° 0 mm 8 mps 758 mmHg 73%
    22:00 +8°C° 0 mm 7 mps 758 mmHg 74%
    23:00 +8°C° 0 mm 7 mps 759 mmHg 74%

    22 September, Saturday

    Time Temperature Precipitation Wind Pressure Humidity
    00:00 +8°C° 0 mm 7 mps 759 mmHg 74%
    01:00 +8°C° 0 mm 7 mps 759 mmHg 74%
    02:00 +6°C° 0 mm 7 mps 760 mmHg 74%
    03:00 +6°C° 0 mm 8 mps 760 mmHg 74%
    04:00 +6°C° 0 mm 8 mps 760 mmHg 75%
    05:00 +6°C° 0 mm 8 mps 761 mmHg 76%
    06:00 +6°C° 0 mm 8 mps 761 mmHg 77%
    07:00 +7°C° 0 mm 8 mps 761 mmHg 74%
    08:00 +9°C° 0 mm 7 mps 762 mmHg 70%
    09:00 +11°C° 0 mm 7 mps 762 mmHg 66%
    10:00 +11°C° 0 mm 7 mps 762 mmHg 63%
    11:00 +13°C° 0 mm 6 mps 763 mmHg 59%
    12:00 +14°C° 0 mm 5 mps 763 mmHg 56%
    13:00 +14°C° 0.1 mm 5 mps 763 mmHg 56%
    14:00 +14°C° 0.1 mm 5 mps 763 mmHg 55%
    15:00 +14°C° 0.1 mm 4 mps 763 mmHg 55%
    16:00 +13°C° 0.1 mm 4 mps 762 mmHg 60%
    17:00 +12°C° 0.1 mm 3 mps 762 mmHg 64%
    18:00 +12°C° 0.1 mm 2 mps 762 mmHg 69%
    19:00 +12°C° 0 mm 2 mps 762 mmHg 71%
    20:00 +10°C° 0 mm 2 mps 761 mmHg 73%
    21:00 +10°C° 0 mm 2 mps 761 mmHg 75%
    22:00 +10°C° 0 mm 2 mps 761 mmHg 75%
    23:00 +10°C° 0 mm 2 mps 760 mmHg 75%

    23 September, Sunday

    Time Temperature Precipitation Wind Pressure Humidity
    00:00 +10°C° 0 mm 2 mps 759 mmHg 75%
    01:00 +9°C° 1 mm 3 mps 758 mmHg 79%
    02:00 +8°C° 1 mm 4 mps 756 mmHg 83%
    03:00 +8°C° 1 mm 6 mps 755 mmHg 87%
    04:00 +7°C° 4.2 mm 8 mps 753 mmHg 88%
    05:00 +6°C° 4.2 mm 10 mps 751 mmHg 89%
    06:00 +5°C° 4.2 mm 12 mps 749 mmHg 90%
    07:00 +7°C° 2.7 mm 13 mps 747 mmHg 88%
    08:00 +8°C° 2.7 mm 15 mps 746 mmHg 87%
    09:00 +7°C° 2.7 mm 17 mps 744 mmHg 86%
    10:00 +7°C° 2.5 mm 17 mps 743 mmHg 85%
    11:00 +7°C° 2.5 mm 18 mps 743 mmHg 84%
    12:00 +7°C° 2.5 mm 18 mps 742 mmHg 83%
    13:00 +7°C° 3.9 mm 18 mps 743 mmHg 83%
    14:00 +7°C° 3.9 mm 19 mps 744 mmHg 83%
    15:00 +7°C° 3.9 mm 19 mps 745 mmHg 83%
    16:00 +7°C° 2.1 mm 18 mps 747 mmHg 80%
    17:00 +7°C° 2.1 mm 18 mps 749 mmHg 77%
    18:00 +7°C° 2.1 mm 18 mps 751 mmHg 73%
    19:00 +7°C° 0.1 mm 17 mps 753 mmHg 73%
    20:00 +6°C° 0.1 mm 16 mps 755 mmHg 72%
    21:00 +6°C° 0.1 mm 15 mps 757 mmHg 71%
    22:00 +6°C° 0.1 mm 14 mps 758 mmHg 71%
    23:00 +6°C° 0.1 mm 14 mps 759 mmHg 71%

    24 September, Monday

    Time Temperature Precipitation Wind Pressure Humidity
    00:00 +5°C° 0.1 mm 14 mps 760 mmHg 71%
    01:00 +5°C° 0.1 mm 14 mps 761 mmHg 71%
    02:00 +4°C° 0.1 mm 13 mps 762 mmHg 71%
    03:00 +4°C° 0.1 mm 13 mps 763 mmHg 71%
    04:00 +4°C° 0.1 mm 13 mps 764 mmHg 71%
    05:00 +3°C° 0.1 mm 12 mps 765 mmHg 71%
    06:00 +3°C° 0.1 mm 11 mps 766 mmHg 71%
    07:00 +4°C° 0 mm 11 mps 767 mmHg 68%
    08:00 +4°C° 0 mm 11 mps 768 mmHg 65%
    09:00 +6°C° 0 mm 11 mps 768 mmHg 62%
    10:00 +7°C° 0 mm 10 mps 769 mmHg 60%
    11:00 +8°C° 0 mm 10 mps 769 mmHg 57%
    12:00 +9°C° 0 mm 10 mps 770 mmHg 54%
    13:00 +11°C° 0 mm 9 mps 770 mmHg 54%
    14:00 +11°C° 0 mm 9 mps 771 mmHg 53%
    15:00 +12°C° 0 mm 8 mps 771 mmHg 53%
    16:00 +11°C° 0 mm 8 mps 771 mmHg 58%
    17:00 +10°C° 0 mm 7 mps 772 mmHg 62%
    18:00 +9°C° 0 mm 6 mps 772 mmHg 66%
    19:00 +8°C° 0 mm 6 mps 773 mmHg 69%
    20:00 +8°C° 0 mm 5 mps 773 mmHg 72%
    21:00 +7°C° 0 mm 5 mps 773 mmHg 75%
    22:00 +7°C° 0 mm 5 mps 773 mmHg 77%
    23:00 +7°C° 0 mm 5 mps 774 mmHg 79%
    Show more